Regional Weather Roundup
Issued by NWS Goodland, KS

Home | Current Version | Previous Version | Graphics & Text | Print | Product List | Glossary On
Versions: 1 2 3 4 5 6 7 8 9 10 11 12 13 14 15 16 17 18 19 20 21 22 23 24 25 26 27 28 29 30 31 32 33 34 35 36 37 38 39 40 41 42 43 44 45 46 47 48 49 50
000
ASUS43 KGLD 181508
RWRGLD

GOODLAND FORECAST AREA HOURLY WEATHER ROUNDUP
NATIONAL WEATHER SERVICE GOODLAND KS
900 AM MDT THU SEP 18 2014

...OFFICIAL OBSERVATIONS...

CITY           SKY/WX    TMP DP  RH WIND       PRES   REMARKS
GOODLAND KS    CLOUDY    65  62  90 S6        30.00R
HILL CITY KS   CLOUDY    63  62  97 E9        29.97R FOG
IMPERIAL NEB   CLOUDY    63  62  97 SE9       29.99R FOG
MCCOOK NEB     FOG       62  61  96 SE12      29.99R VSB 1
AKRON CO       SUNNY     68  46  45 CALM      30.03R
BURLINGTON CO  CLOUDY    61  60  97 SE3       30.02R FOG
LIMON CO       SUNNY     70  43  37 W6        30.07S
$$

...UNOFFICIAL OBSERVATIONS...

CITY           SKY/WX    TMP DP  RH WIND       PRES   REMARKS
GOVE KS          N/A     67  32  27 MISG        N/A
SHARON SPRINGS   N/A     63  62  97 CALM        N/A
TRIBUNE KS     CLOUDY    63  63 100 CALM      30.01R VSB 1/4
WAKEENEY KS      N/A     64  63  97 MISG        N/A
TRENTON NEB      N/A     64  32  30 CALM        N/A
YUMA CO          N/A     59  59  99 CALM        N/A
$$


USA.gov is the U.S. government's official web portal to all federal, state and local government web resources and services.